Blue Canyon, CA

6:55 AM PDT on September 19, 2017 (GMT -0700)
Blue Canyon-Nyack

Weather History for KBLU - April, 2013

Change the Weather History Date:

Thursday, April 18, 2013

  Actual Average Record
Temperature  
Mean Temperature 47 °F -  
Max Temperature 57 °F 47 °F 71 °F (1954)
Min Temperature 39 °F 32 °F 20 °F (1967)
Degree Days  
Heating Degree Days 18    
Moisture  
Dew Point 19 °F    
Average Humidity 32    
Maximum Humidity 56    
Minimum Humidity 20    
Precipitation  
Precipitation 0.00 in - - ()
Sea Level Pressure  
Sea Level Pressure 30.21 in    
Wind  
Wind Speed 7 mph (NNE)    
Max Wind Speed 13 mph    
Max Gust Speed 30 mph    
Visibility 10 miles    
Events      
Averages and records for this station are not official NWS values.
T = Trace of Precipitation, MM = Missing Value Source: NWS Daily Summary

Daily Weather History Graph

Daily Weather History Graph

Search for Another Location

Airport or City:

Trip Planner

Search our weather history database for the weather conditions in past years. The results will help you decide how hot, cold, wet, or windy it might be!

Date:

Astronomy

Apr. 18, 2013 Rise Set
Actual Time 6:21 AM PDT 7:43 PM PDT
Civil Twilight 5:53 AM PDT 8:11 PM PDT
Nautical Twilight 5:19 AM PDT 8:45 PM PDT
Astronomical Twilight 4:44 AM PDT 9:20 PM PDT
Moon 12:38 PM PDT (4/18) 2:00 AM PDT (4/18)
Length of Visible Light 14h 18m
Length of Day
13h 22m
First Quarter, 53% of the Moon is Illuminated
Apr 18
First Quarter
Apr 25
Full
May 2
Last Quarter
May 9
New
May 17
First Quarter

Hourly Weather History & Observations

Time (PDT) Temp. Windchill Dew Point Humidity Pressure Visibility Wind Dir Wind Speed Gust Speed Precip Events Conditions
12:52 AM 39.9 °F 35.8 °F 10.0 °F 29% 30.22 in 10.0 mi Variable 5.8 mph - N/A   Clear
1:52 AM 39.9 °F 34.5 °F 9.0 °F 28% 30.18 in 10.0 mi NE 8.1 mph 23.0 mph N/A   Clear
2:52 AM 39.0 °F 32.8 °F 10.0 °F 30% 30.17 in 10.0 mi ENE 9.2 mph 19.6 mph N/A   Clear
3:52 AM 39.0 °F 31.8 °F 10.0 °F 30% 30.17 in 10.0 mi ENE 11.5 mph 21.9 mph N/A   Clear
4:52 AM 39.9 °F 33.4 °F 9.0 °F 28% 30.17 in 10.0 mi ENE 10.4 mph 29.9 mph N/A   Clear
5:52 AM 39.0 °F 31.4 °F 9.0 °F 29% 30.18 in 10.0 mi NE 12.7 mph 24.2 mph N/A   Clear
6:52 AM 39.9 °F 35.1 °F 8.1 °F 27% 30.20 in 10.0 mi ENE 6.9 mph - N/A   Clear
7:52 AM 43.0 °F 40.3 °F 10.9 °F 27% 30.23 in 10.0 mi Variable 4.6 mph - N/A   Clear
8:52 AM 46.9 °F - 12.0 °F 24% 30.22 in 10.0 mi Variable 6.9 mph - N/A   Clear
9:52 AM 50.0 °F - 12.0 °F 22% 30.22 in 10.0 mi Variable 4.6 mph - N/A   Clear
10:52 AM 53.1 °F - 12.0 °F 20% 30.22 in 10.0 mi Variable 4.6 mph - N/A   Clear
11:52 AM 55.0 °F - 14.0 °F 20% 30.21 in 10.0 mi Variable 4.6 mph - N/A   Clear
12:52 PM 54.0 °F - 21.0 °F 28% 30.22 in 10.0 mi SW 9.2 mph - N/A   Clear
1:52 PM 55.0 °F - 23.0 °F 29% 30.21 in 10.0 mi West 10.4 mph - N/A   Clear
2:52 PM 55.0 °F - 26.1 °F 33% 30.22 in 10.0 mi Variable 6.9 mph - N/A   Clear
3:52 PM 55.0 °F - 28.0 °F 35% 30.20 in 10.0 mi Variable 6.9 mph - N/A   Clear
4:52 PM 55.0 °F - 28.9 °F 37% 30.19 in 10.0 mi West 8.1 mph - N/A   Clear
5:52 PM 54.0 °F - 30.9 °F 41% 30.21 in 10.0 mi WSW 6.9 mph - N/A   Clear
6:52 PM 53.1 °F - 30.0 °F 41% 30.22 in 10.0 mi NW 10.4 mph - N/A   Clear
7:52 PM 46.9 °F - 32.0 °F 56% 30.24 in 10.0 mi NNW 3.5 mph - N/A   Clear
8:52 PM 48.0 °F - 30.0 °F 50% 30.22 in 10.0 mi North 3.5 mph - N/A   Clear
9:52 PM 50.0 °F - 26.1 °F 39% 30.22 in 10.0 mi ENE 5.8 mph - N/A   Clear
10:52 PM 48.9 °F - 26.1 °F 41% 30.21 in 10.0 mi NE 4.6 mph - N/A   Clear
11:52 PM 50.0 °F - 21.9 °F 33% 30.20 in 10.0 mi NNE 5.8 mph - N/A   Clear